カタログに戻る

CZ-6A DEB

運用中PO
NORAD 61414·DEBRIS·🇨🇳 China

打ち上げ Aug 6, 2024 から Taiyuan Satellite Launch Center

Loading…

次のパス (今後24時間)

TLE

最新Source: Space-Track

元期: Sep 14, 2026, 10:59 UTC

1 61414U 24140YF  26257.45832919  .00001619  00000-0  35970-3 0  9994
2 61414  88.9799 258.3281 0085730 317.3573  42.1002 14.54328426106723

AllMySatでCZ-6A DEBをリアルタイム追跡

Download on the App Store